Content
SEND FEEDBACK

Daily
Averages
Monthly
Summary
Brazil

FLORIANOPOLIS, SANTA CATARINA


Home > South America > Brazil > Santa Catarina
Elevation: 16 feet     Latitude: 27 40S     Longitude: 048 33W

WEATHER
 
SELECT A DAY
Number of Records: 184,878;   Date Range: 6/30/96 - 10/1/14
 
SHARE

PRINT THIS DATA

[ ← Previous Day ]
WEATHER ALMANAC - MAY 10, 2013
[ Next Day → ]
[ °C ]   °F
Weather ElementAverageHighLow
Temperature63.2 °F75.2 °F (1:00 pm)46.4 °F (4:00 am)
Dewpoint55.1 °F62 °F (9:00 pm)46 °F (3:00 am)
Humidity75.8 %100 % (4:00 am)44 % (3:00 pm)
Barometer30.15 in30.20 in (9:00 am)30.09 in (2:00 pm)
Wind Speed7.5 mph15 mph (12:00 pm)
Wind Gust18.4 mph (8:00 pm)
Weather ElementAverage
Visibility10.1 mi
Wind DirectionSSW (205 °)

Weather ElementTotal
Precipitation---
Heating Degree Days4.2 (Base 65)
Growing Degree Days10.8 (Base 50)
Averaged from 27 records on May 10, 2013
WEATHER CONDITIONS BREAKOUT
WIND DIRECTION BREAKOUT
WEATHER BY HOUR - MAY 10, 2013
[ °C ]   °F
Local TimeTemperatureDewpointHumidityBarometerVisibilityWind DirectionWind SpeedGust SpeedPrecipitationEventsConditions
1:00 AM50.0 °F48.2 °F94 %30.18 inSSW (210°)2.3 mphClear
2:00 AM50.0 °F48.2 °F94 %30.18 inWSW (240°)2.3 mphClear
3:00 AM48.0 °F46.0 °F92 %30.16 in12.0 miCalm
3:00 AM48.2 °F46.4 °F93 %30.15 inCalmClear
4:00 AM46.4 °F46.4 °F100 %30.15 inCalmClear
5:00 AM46.4 °F46.4 °F100 %30.15 inCalmClear
6:00 AM51.8 °F48.2 °F88 %30.15 inNW (310°)6.9 mphClear
7:00 AM57.2 °F53.6 °F88 %30.15 inNW (320°)5.8 mphClear
8:00 AM59.0 °F51.8 °F77 %30.18 inWest (280°)4.6 mphClear
9:00 AM63.0 °F53.0 °F62 %30.20 in12.0 miWNW (300°)8.1 mph
9:00 AM62.6 °F53.6 °F72 %30.18 inWNW (300°)8.1 mphClear
10:00 AM66.2 °F57.2 °F73 %30.18 inWNW (300°)9.2 mphClear
11:00 AM69.8 °F59.0 °F68 %30.18 inNorth (350°)13.8 mphClear
12:00 PM73.4 °F57.2 °F57 %30.15 inNNW (330°)15.0 mphClear
1:00 PM75.2 °F57.2 °F53 %30.12 inNorth (360°)13.8 mphClear
2:00 PM75.2 °F59.0 °F57 %30.09 inNNW (340°)15.0 mphClear
3:00 PM75.0 °F58.0 °F44 %30.09 in12.0 miNorth (10°)13.8 mphClear
3:00 PM75.2 °F57.2 °F53 %30.09 inNorth (10°)13.8 mphClear
4:00 PM73.4 °F59.0 °F61 %30.09 inNorth (360°)13.8 mphClear
5:00 PM71.6 °F59.0 °F64 %30.09 inNorth (360°)12.7 mphClear
6:00 PM69.8 °F60.8 °F73 %30.09 inNorth (10°)10.4 mphClear
7:00 PM69.8 °F59.0 °F68 %30.12 inNorth (10°)10.4 mphClear
8:00 PM68.0 °F60.8 °F78 %30.15 inNorth (10°)6.9 mph18.4 mphClear
9:00 PM67.0 °F62.0 °F77 %30.17 in12.0 miNorth4.6 mph
9:00 PM68.0 °F60.8 °F78 %30.15 inNorth (360°)4.6 mphClear
10:00 PM62.6 °F60.8 °F94 %30.15 in6.2 miWest (280°)2.3 mphPartly Cloudy
11:00 PM62.6 °F59.0 °F88 %30.18 in6.2 miWest (280°)4.6 mphScattered Clouds
Hourly data recorded from SBFL, located miles away from Florianopolis, Santa Catarina







STORIES FROM OUR PARTNERS